Theta_e
348 350 352 354 356 357 357 356 356 359 363 364 363 364 364 364 364 365 365 365 365 366 366 365 366 365 365 365 365 364 365 365 365 365 363 363 361 362 362 361 361 364 363 362 362 363 363 362 362 362 362 362 361 362 361 361 362 362 361 362 363 363 362 362 361 360 360 361 360 360 360 361 361 362 362 361 360 361 362 361 361 358 358 358 359
348 352 354 352 355 356 357 357 356 360 363 364 364 364 364 365 365 364 365 365 365 365 366 366 365 365 364 364 364 364 365 365 365 364 361 362 359 357 360 362 361 364 363 362 362 362 363 363 361 362 361 361 361 360 362 362 361 360 360 362 362 361 361 360 360 359 359 360 362 360 361 361 361 361 361 361 361 362 362 361 360 358 358 358 359
352 353 355 354 356 356 359 357 353 355 363 363 364 364 364 364 364 365 364 364 365 365 365 365 365 365 364 364 364 365 364 365 363 361 359 360 360 360 362 361 360 360 362 362 362 362 362 362 362 361 361 362 362 362 362 360 360 360 361 361 361 360 360 360 360 360 360 361 361 361 361 360 360 362 362 362 363 362 362 361 360 360 357 360 360
352 354 355 358 358 357 356 356 356 360 363 363 363 363 364 364 364 364 364 364 364 364 364 364 364 364 364 364 364 364 364 364 362 361 360 360 362 362 363 361 360 358 361 362 362 362 362 362 362 362 361 363 362 361 359 360 360 360 361 361 360 359 360 359 359 360 360 360 362 359 359 359 360 361 361 361 360 360 360 359 358 358 359 360 360
353 355 356 356 355 354 355 355 359 363 363 363 363 363 363 363 364 364 364 364 364 364 364 363 363 363 363 364 363 363 363 362 362 361 361 359 361 362 362 362 361 361 362 361 361 362 362 362 362 362 363 363 363 362 360 360 360 361 361 362 361 360 361 361 360 361 361 361 362 360 358 357 357 358 360 360 362 361 361 359 359 359 360 359 359
354 356 356 355 353 354 356 359 362 363 364 363 363 363 363 364 364 364 364 364 364 363 363 363 362 362 362 362 363 362 363 362 361 361 359 358 360 362 358 361 360 362 361 361 362 362 362 361 361 362 363 363 362 360 359 360 360 360 361 360 361 360 360 361 361 361 362 362 360 357 357 358 359 358 357 360 361 360 361 360 358 359 359 359 359
355 357 355 355 351 356 363 363 363 364 364 363 363 363 364 364 364 364 364 364 363 363 363 362 361 360 360 360 359 361 361 362 360 360 359 360 361 361 358 359 360 361 361 361 361 362 363 362 362 362 362 362 361 361 359 360 360 359 359 359 360 360 361 361 362 363 361 357 355 356 356 357 355 354 358 358 362 360 359 360 359 359 360 360 358
357 357 358 358 359 362 363 365 364 363 363 363 364 364 364 364 364 363 363 364 363 363 361 357 356 357 357 355 356 359 361 362 360 358 355 359 360 360 359 358 360 361 361 361 362 362 362 362 362 362 361 361 362 362 361 360 361 362 361 362 361 361 361 362 362 362 360 355 355 356 357 357 357 356 354 358 362 359 361 361 360 359 359 359 359
356 357 358 358 359 363 363 363 363 364 364 364 364 363 363 363 362 363 363 361 362 358 355 355 357 357 357 358 359 359 360 361 359 358 358 359 360 361 360 358 357 355 358 361 361 361 361 361 361 360 360 361 361 362 362 362 362 361 360 361 361 361 360 361 362 360 356 356 355 355 356 357 357 358 359 362 361 360 360 359 359 359 359 360 359
355 356 357 356 357 363 363 363 363 364 363 363 363 362 362 363 362 361 362 361 359 355 355 355 356 358 357 359 359 360 360 360 360 357 357 358 359 360 360 356 354 354 358 359 360 360 360 360 360 360 359 360 361 361 362 361 361 361 360 361 361 360 360 362 361 360 355 357 357 357 359 358 356 355 357 360 358 358 360 361 360 358 359 359 359
355 355 356 357 359 364 364 364 364 364 363 363 363 363 362 363 362 362 362 361 358 356 357 355 355 357 358 359 359 359 359 359 359 358 358 358 358 359 359 357 356 356 358 358 356 358 359 359 360 360 360 359 360 361 361 361 360 361 361 361 361 361 361 360 358 353 354 355 355 357 358 359 355 353 356 357 359 360 361 360 360 359 358 358 357
355 355 356 359 363 365 363 364 364 364 364 363 363 362 361 362 361 360 362 361 357 355 354 354 355 356 356 355 358 357 359 358 358 358 358 358 358 360 360 357 358 358 357 357 356 356 357 358 359 358 356 357 359 361 361 361 361 361 360 361 362 361 361 360 354 353 353 354 356 356 355 354 354 354 357 359 359 360 359 359 359 358 358 359 358
355 356 358 360 362 365 363 364 364 363 364 363 362 362 362 363 362 362 362 361 357 354 354 352 352 352 354 354 356 358 358 358 359 359 359 359 359 359 359 359 358 358 357 355 354 355 355 355 353 353 355 356 356 359 361 361 361 361 361 361 362 361 360 359 353 353 354 354 354 355 356 357 354 354 357 359 358 358 358 358 358 358 358 358 358
355 356 358 359 360 364 364 364 364 363 363 362 362 362 363 362 362 362 361 362 359 354 355 354 354 355 356 355 356 358 358 358 359 359 359 359 359 359 359 360 359 358 357 356 355 355 356 354 352 352 354 356 358 359 361 362 362 361 360 361 361 361 361 359 357 354 355 356 357 355 356 360 356 355 357 357 358 357 358 358 357 358 357 357 357
355 357 359 359 360 361 364 364 363 363 363 363 363 363 363 363 363 362 361 361 360 359 356 355 354 355 357 357 358 359 358 358 358 358 359 359 359 358 360 359 358 358 358 358 355 356 357 355 355 352 354 356 359 361 359 360 361 360 360 360 362 361 360 355 354 355 355 356 357 355 356 358 358 357 357 359 358 358 358 358 357 358 357 357 358
357 358 359 358 359 360 362 364 364 364 364 363 362 362 362 363 362 361 360 360 359 357 354 353 354 356 356 357 358 359 359 359 358 358 359 359 358 358 357 357 357 357 358 358 356 356 356 356 356 356 357 357 358 358 358 360 360 361 361 361 361 361 360 358 354 354 355 356 357 358 357 357 358 358 359 358 358 357 358 357 357 358 357 357 357
357 358 358 357 358 358 361 361 362 364 363 363 362 362 362 362 362 362 361 359 360 359 353 352 355 355 356 358 358 358 358 358 358 358 358 358 358 357 357 358 357 358 357 358 357 356 358 358 358 357 358 359 359 359 359 359 360 360 361 362 361 361 361 359 355 356 357 358 357 357 359 359 358 358 358 358 357 357 357 357 358 357 357 357 357
356 357 356 357 358 359 359 359 359 360 360 361 363 363 363 362 362 361 361 360 361 360 357 353 353 355 356 357 358 359 358 358 358 358 358 359 359 358 357 356 357 359 359 358 357 356 358 360 360 357 359 360 360 359 358 358 358 360 361 361 362 362 361 360 356 358 359 359 358 360 358 358 357 357 357 357 357 357 357 357 357 357 358 357 357
355 357 358 358 357 357 358 358 360 357 356 356 358 361 362 361 361 361 361 361 361 361 358 355 353 356 357 357 357 358 358 358 356 357 359 359 359 359 359 358 358 358 360 358 356 356 359 360 360 360 359 360 360 359 357 357 358 359 359 360 361 362 362 359 357 357 357 357 358 358 359 359 357 357 357 357 357 358 357 357 357 357 357 356 356
355 356 357 358 357 356 356 356 356 356 356 356 356 357 360 360 360 360 360 360 362 359 357 352 354 355 356 358 358 355 356 358 358 356 356 358 359 359 359 359 360 359 357 357 358 358 358 358 359 360 359 359 359 360 359 358 358 357 357 358 360 362 355 356 356 356 358 358 359 358 359 357 357 356 357 357 358 358 357 357 356 357 356 356 356
354 356 356 356 356 356 355 355 356 356 356 357 355 355 359 360 359 360 359 360 360 360 357 356 355 354 357 358 356 352 351 353 354 356 357 358 358 359 360 359 358 359 359 359 358 358 360 361 360 361 360 361 360 360 359 358 358 359 359 361 362 354 355 356 356 358 358 359 359 358 359 357 356 357 357 357 357 357 356 356 356 356 356 356 356
351 353 356 356 355 355 355 355 355 355 355 356 355 355 357 358 357 358 361 360 360 360 357 354 354 353 354 351 354 352 349 352 355 357 358 358 357 357 358 358 359 361 361 360 360 360 360 361 358 358 359 359 362 357 360 362 359 359 359 362 354 354 354 356 356 357 357 358 359 359 358 357 357 357 357 357 357 357 357 356 356 356 356 355 355
348 351 353 354 354 354 355 355 354 354 355 356 357 358 355 355 356 358 360 360 360 358 357 356 354 353 349 349 349 349 350 351 355 355 357 358 356 358 358 358 359 359 361 361 360 361 359 359 359 357 358 360 354 354 354 356 359 362 362 354 354 354 355 355 356 355 356 358 358 360 358 358 357 357 357 357 356 356 356 356 356 355 355 355 354
347 350 351 354 355 355 356 355 354 353 353 354 354 354 355 355 355 355 356 356 355 356 355 355 355 355 355 353 351 352 352 354 358 357 358 356 356 357 358 359 359 360 362 362 362 361 362 361 361 362 359 358 355 355 353 355 352 352 353 353 353 353 354 354 356 355 354 358 357 360 358 358 358 357 357 357 357 357 356 356 356 356 356 356 355
346 349 352 353 354 355 356 355 354 354 354 356 353 353 354 354 354 355 355 354 354 354 355 355 355 355 355 355 354 353 351 350 352 354 354 354 355 355 356 356 357 358 360 353 354 355 356 354 354 356 355 357 357 356 356 354 354 351 352 353 353 353 353 355 355 355 355 356 360 359 359 359 358 357 357 358 358 357 356 357 356 357 356 354 356
347 346 349 353 354 356 355 354 354 353 354 353 353 358 354 353 353 355 354 354 354 354 354 355 355 355 355 356 355 353 353 353 353 353 354 354 353 354 353 354 354 354 356 352 352 351 351 352 353 353 354 355 355 355 357 356 354 351 351 352 353 353 353 353 354 355 355 355 360 359 360 359 358 358 358 358 358 358 358 357 356 358 358 357 355
345 345 349 352 354 355 355 355 353 353 353 354 355 354 352 353 354 355 353 353 354 354 354 355 355 355 355 356 353 353 352 352 353 353 353 353 353 353 353 353 353 353 353 352 353 353 351 352 353 353 354 355 355 355 356 353 354 352 351 351 352 352 353 353 354 354 354 355 358 360 360 360 359 358 359 359 359 359 358 358 357 358 358 357 357
343 344 348 350 353 354 355 354 353 353 353 354 354 352 352 353 356 359 354 359 356 354 354 355 356 357 357 357 355 352 352 352 352 352 352 353 353 353 353 353 354 353 353 353 353 353 354 355 356 356 356 357 356 357 356 355 352 354 350 350 351 353 353 353 353 353 354 355 357 361 360 360 359 359 359 358 359 359 359 358 357 357 358 357 357
342 344 347 349 351 354 354 354 354 353 353 354 353 352 352 353 357 354 353 361 353 354 356 356 355 357 357 358 357 353 352 352 352 352 351 351 352 352 353 352 352 351 353 352 354 352 353 354 355 355 356 356 356 356 357 356 354 352 352 350 350 352 353 353 352 352 353 354 355 359 361 360 359 359 359 358 358 358 358 358 357 357 357 357 358
342 345 346 348 351 354 354 353 354 353 354 355 352 352 352 353 354 354 353 359 354 355 357 355 354 355 355 356 356 353 352 352 351 350 351 350 351 351 352 353 352 352 352 351 353 352 354 355 355 355 354 355 355 355 358 357 356 352 352 351 349 351 353 353 352 352 353 353 355 357 361 360 360 360 359 358 358 358 358 357 358 357 357 358 358
344 344 346 348 352 353 353 354 354 357 354 354 353 352 353 353 355 353 355 355 356 357 356 354 354 354 355 355 356 357 352 352 351 349 349 349 348 349 352 352 351 351 353 352 355 355 355 354 355 356 355 355 354 355 356 356 356 352 350 351 350 351 353 354 353 352 352 353 354 355 357 362 360 360 359 359 359 358 359 359 359 359 358 358 358
344 344 346 349 351 352 353 354 355 356 355 354 355 352 353 353 355 353 355 356 357 355 355 354 354 353 354 353 353 355 355 351 351 350 350 349 348 350 352 351 351 352 354 353 354 356 356 355 355 356 356 356 355 356 355 353 353 351 349 349 350 350 352 353 353 353 352 353 353 354 356 357 361 361 360 360 360 359 359 359 359 359 359 359 359
345 347 348 349 350 352 352 353 355 357 354 354 354 353 353 355 354 353 356 357 356 354 353 354 352 352 352 352 352 355 356 352 351 355 355 349 349 349 351 353 353 354 353 355 355 355 355 354 354 356 356 356 355 353 352 349 347 345 346 348 349 349 352 353 353 353 352 352 353 354 354 356 358 360 362 361 360 361 360 359 359 360 359 359 360
346 347 349 348 352 352 353 354 355 355 354 354 354 353 353 354 355 354 358 356 355 354 353 352 353 352 352 351 352 356 352 352 353 352 351 350 350 350 351 352 353 354 354 355 353 353 354 355 355 357 358 358 350 352 347 344 344 346 347 347 349 350 351 351 352 352 352 352 353 353 354 354 356 357 358 360 360 361 361 361 361 361 361 361 361
349 348 348 349 352 352 353 354 356 355 357 355 355 353 353 355 353 353 356 355 354 353 352 352 352 352 351 351 352 356 351 352 353 352 350 350 350 350 351 352 353 356 354 354 354 354 355 356 357 357 354 352 350 356 350 349 347 346 347 349 348 348 350 350 351 351 352 353 353 353 354 354 355 356 356 357 359 359 360 362 362 363 362 362 362
348 348 349 350 351 351 355 353 356 354 355 355 354 353 353 354 353 355 355 354 354 353 351 351 351 351 352 350 351 356 351 352 353 352 350 350 350 349 350 352 353 356 354 354 358 356 357 357 358 358 353 348 353 350 351 351 350 346 346 348 348 351 349 349 349 349 350 352 353 353 353 354 354 354 357 357 357 356 358 360 361 362 362 363 363
349 348 348 349 350 351 355 353 354 354 354 354 353 352 353 353 352 355 354 353 352 352 351 351 351 351 350 350 351 356 351 352 354 352 350 350 350 350 351 352 355 356 356 356 356 359 359 358 357 359 354 353 350 347 348 350 349 350 347 345 345 350 349 350 348 349 349 350 351 351 352 352 353 357 358 357 357 357 356 356 359 360 362 363 362
349 349 349 349 349 351 353 353 354 354 353 353 351 351 352 353 352 353 356 352 351 351 352 351 350 350 350 350 350 356 353 352 353 352 350 351 351 351 352 354 355 357 357 357 358 358 357 356 357 356 358 356 353 350 350 350 347 345 347 347 348 347 349 349 348 353 351 350 350 350 351 351 352 352 354 356 356 357 356 356 356 357 359 360 361
349 348 349 349 350 350 353 355 353 353 352 352 350 350 351 352 352 352 352 350 350 350 352 350 350 351 349 350 351 354 355 352 353 353 350 354 352 351 351 354 357 359 359 358 358 359 360 354 354 356 358 358 356 354 353 352 348 345 347 347 347 349 350 348 350 351 352 349 349 351 349 351 351 352 353 354 354 356 356 356 356 355 355 354 357
348 347 349 349 349 350 351 353 352 352 351 350 350 348 349 350 349 349 348 350 347 351 351 350 351 350 350 350 352 353 354 353 352 352 352 353 352 352 352 355 359 361 359 358 357 355 355 353 356 362 358 356 359 359 354 353 347 344 349 350 346 348 349 349 349 348 352 351 351 353 353 353 353 353 352 354 355 355 356 356 358 357 356 355 355
346 346 347 347 348 349 350 350 350 351 350 348 347 346 345 346 346 347 346 347 346 349 351 351 352 351 351 350 352 353 353 353 353 352 351 358 354 353 355 356 359 361 359 358 355 357 361 358 359 357 360 352 353 352 349 346 345 346 343 343 344 344 351 356 347 347 347 349 351 352 354 354 355 354 356 355 356 356 356 357 357 357 356 356 355
343 344 345 347 348 349 350 350 349 350 350 349 348 347 346 346 345 346 345 346 347 349 349 351 352 353 352 351 353 353 353 353 355 352 353 352 356 356 357 358 359 360 358 359 361 366 358 356 355 354 353 354 352 351 347 344 340 337 339 339 341 341 347 353 349 348 347 347 348 350 351 350 351 352 354 356 357 357 357 358 358 358 357 357 356
342 343 345 346 347 349 349 350 349 349 350 350 349 346 347 349 348 347 346 345 349 351 350 353 356 354 352 352 354 353 354 353 356 354 353 353 355 358 358 358 359 360 361 356 356 357 357 357 356 355 354 352 356 355 349 345 342 343 341 339 334 333 342 342 343 343 344 346 346 346 347 347 348 351 353 354 355 357 356 358 358 358 358 357 357
342 343 344 345 347 349 349 349 349 350 349 351 351 348 348 349 350 349 349 348 348 354 355 356 356 355 352 353 354 354 354 355 356 355 356 356 357 357 358 359 359 361 359 355 355 356 356 357 357 359 353 350 348 350 357 347 347 344 337 335 334 332 332 337 337 342 343 343 343 343 344 345 346 347 350 350 348 353 356 357 357 358 358 358 358
340 342 344 345 347 348 348 349 349 349 349 353 351 348 352 349 351 350 351 352 352 352 352 353 355 356 355 354 354 356 356 357 359 359 359 358 359 359 359 359 359 360 360 357 356 357 358 357 358 360 354 351 348 350 353 352 345 348 341 338 335 333 332 334 334 341 339 342 341 340 344 344 344 346 348 346 347 350 349 351 356 357 358 358 358
340 342 344 346 348 348 348 349 349 349 349 351 350 350 350 348 347 345 344 345 345 347 347 349 352 354 354 355 356 358 358 359 361 361 361 362 360 360 359 360 360 362 361 358 357 358 358 358 359 358 354 353 352 347 348 355 355 357 344 343 346 338 339 340 335 337 342 345 343 341 341 343 345 346 348 346 345 345 351 350 354 355 356 356 357
340 342 344 346 348 348 348 349 349 349 349 350 349 352 347 349 347 346 345 345 345 347 350 353 354 356 358 356 357 359 360 360 361 362 363 364 362 360 360 360 362 361 366 359 359 359 360 360 359 357 356 361 351 349 350 351 346 352 357 353 351 351 345 342 339 338 336 341 340 340 340 339 342 342 342 343 343 344 346 349 350 350 353 354 355
340 341 343 345 347 347 348 348 349 350 349 350 349 351 347 348 347 346 347 346 347 347 350 353 356 358 357 357 358 359 361 362 361 361 362 364 362 361 361 361 361 360 366 361 359 359 359 360 361 356 360 360 353 351 351 350 349 347 358 352 353 352 347 345 342 339 336 333 336 341 340 339 338 340 342 341 341 342 343 346 347 348 351 352 354
340 340 343 345 347 348 349 349 349 350 349 350 349 350 350 348 348 347 347 349 350 350 353 356 356 359 356 357 357 358 360 361 361 360 361 363 365 361 361 361 360 359 368 363 361 360 359 358 360 358 358 356 354 353 352 353 350 352 353 353 348 346 345 344 345 348 343 334 336 336 340 343 339 342 339 339 341 343 344 346 347 349 353 356 356
340 342 343 345 346 347 348 348 347 349 349 349 349 349 350 350 347 347 347 347 351 351 353 353 354 356 355 356 356 357 358 359 359 360 360 362 364 363 360 361 361 360 366 363 361 361 359 358 359 358 358 359 358 355 356 354 354 354 353 351 350 349 346 347 344 343 340 339 335 336 338 338 338 343 340 340 341 341 342 344 346 346 350 355 355
340 341 342 344 345 347 347 346 347 348 350 349 348 348 350 349 348 348 348 347 349 349 350 351 352 353 353 354 355 356 357 358 359 360 360 361 362 365 362 361 361 365 366 361 361 360 359 359 360 360 360 358 359 361 365 359 356 356 352 354 352 348 347 344 346 344 340 340 339 337 336 340 338 338 347 343 351 348 345 345 344 344 350 352 355
Wind_Speed
2 4 3 6 8 9 8 6 4 3 8 8 9 10 10 10 10 10 10 11 12 12 13 13 13 12 12 12 12 12 12 11 11 12 13 12 11 11 13 15 15 17 15 14 15 15 14 15 16 16 15 15 14 12 12 14 15 14 15 15 13 12 12 11 12 12 13 13 11 11 10 10 12 13 13 13 14 14 14 13 11 10 8 11 14
5 4 4 5 9 9 8 7 2 3 9 8 8 9 10 10 9 9 9 10 11 12 12 12 12 12 12 11 11 11 11 11 11 12 13 12 12 8 10 15 15 16 15 14 14 15 15 15 15 15 15 15 14 12 11 12 14 14 15 15 13 11 11 11 12 12 13 13 11 11 11 10 11 12 12 13 14 14 13 13 13 8 7 13 14
6 5 3 6 9 8 10 9 6 1 8 8 8 9 10 10 10 9 9 9 9 11 11 12 12 12 11 10 10 11 11 11 11 14 10 11 12 11 11 15 15 16 14 13 14 15 16 15 14 14 14 14 13 11 11 12 14 14 15 15 13 11 9 9 11 13 14 13 12 11 10 11 12 12 12 13 13 13 14 14 14 12 9 14 12
7 4 4 7 10 10 9 8 8 8 9 8 8 8 9 9 9 9 8 8 9 10 10 11 11 11 11 11 11 11 11 10 12 13 11 8 10 12 12 14 17 17 12 12 13 15 15 15 14 14 14 13 13 13 12 13 14 15 16 13 12 10 9 10 12 14 13 12 11 8 4 4 6 10 12 13 13 14 14 15 14 13 15 14 14
7 5 5 6 6 6 9 11 11 9 9 8 8 8 8 8 9 9 8 8 9 9 10 10 9 9 9 10 10 11 11 11 11 11 11 9 5 10 12 13 17 19 14 12 13 14 14 14 14 14 13 12 12 12 13 13 14 15 16 13 12 10 9 12 13 14 13 13 11 7 4 6 4 9 11 13 14 14 15 14 14 13 14 14 14
6 5 5 5 6 7 15 11 10 10 9 8 8 8 8 8 8 8 8 8 8 9 9 9 8 7 9 10 10 9 10 11 12 11 12 9 5 9 10 15 15 15 14 12 13 14 14 14 14 14 13 11 10 12 14 14 14 16 14 13 12 12 12 13 14 14 13 13 11 4 5 5 5 5 10 13 13 15 15 15 13 12 14 15 15
7 5 6 6 7 6 6 9 9 9 9 8 8 8 7 7 7 7 8 8 8 9 9 8 9 10 10 11 8 7 9 11 11 11 10 8 8 10 12 15 13 13 12 13 14 14 15 13 14 13 13 12 13 14 14 14 14 14 13 13 13 13 13 13 14 14 13 7 4 4 4 8 6 3 10 11 13 14 14 14 14 13 15 14 13
5 4 4 5 3 5 6 8 8 8 8 8 7 7 7 7 7 7 7 7 8 8 12 13 5 6 9 9 6 7 8 10 11 13 9 7 9 9 12 14 12 11 11 13 12 12 14 14 14 13 13 12 13 13 13 14 14 13 13 13 13 13 13 14 13 13 12 6 5 4 5 5 6 4 7 9 13 14 13 14 13 14 13 14 13
6 5 5 4 4 8 7 7 8 8 8 7 6 6 6 6 7 7 6 7 9 12 12 7 4 7 6 7 8 8 8 8 9 11 12 9 10 10 12 15 13 8 9 13 12 10 12 12 14 12 12 13 13 14 14 14 14 13 13 14 14 13 13 13 13 12 8 5 5 5 5 5 4 4 8 11 12 13 13 12 12 13 13 13 13
6 5 4 3 3 8 7 7 8 8 8 7 6 6 6 6 7 7 7 7 11 15 9 4 5 7 6 7 8 8 7 7 8 9 10 9 9 10 10 15 15 9 11 12 12 9 12 13 14 12 11 10 12 13 13 13 14 14 14 14 14 13 13 13 13 10 5 5 5 5 5 6 5 5 8 9 12 12 13 13 11 11 10 12 13
6 5 4 3 3 8 8 8 8 8 7 7 7 7 6 7 7 7 7 8 13 14 10 5 6 7 6 6 8 8 8 7 8 8 8 10 10 11 10 14 15 12 11 14 13 9 12 13 14 11 10 9 9 13 12 13 13 14 13 13 13 13 13 12 10 5 5 6 6 5 6 9 7 5 7 11 11 10 13 13 13 12 12 12 12
6 4 4 3 6 8 7 8 8 7 7 7 7 7 7 7 7 7 7 8 15 17 8 4 7 7 4 5 6 7 8 7 6 7 7 9 10 11 10 13 15 13 12 14 14 10 13 13 13 12 10 7 7 11 12 13 13 13 13 13 13 13 13 12 6 5 5 6 6 5 6 8 7 6 8 10 11 10 12 13 12 12 11 11 11
6 5 4 3 3 7 7 8 8 8 7 7 7 7 7 7 7 7 8 8 15 17 9 3 6 5 5 5 7 7 6 6 5 6 7 8 10 10 10 12 13 12 13 17 17 14 14 15 11 10 10 9 8 6 10 12 13 12 12 12 12 12 12 12 5 5 5 6 5 6 6 5 5 9 7 9 10 12 12 12 12 11 10 10 10
7 5 4 3 2 7 8 8 8 7 7 7 8 8 7 7 7 8 7 8 12 18 12 6 7 7 6 7 8 8 7 6 7 7 8 7 9 10 11 12 12 11 11 15 19 19 17 17 14 11 9 11 9 9 9 11 12 12 12 11 12 12 12 9 7 5 6 5 5 5 5 4 6 9 9 9 10 12 11 11 10 10 9 9 10
8 6 5 3 2 3 8 8 8 7 7 8 8 8 8 8 8 8 7 8 9 18 11 8 7 7 7 7 8 9 7 7 7 8 7 7 8 10 12 12 12 10 10 12 14 16 18 20 19 16 15 14 12 11 11 10 12 12 11 11 12 12 12 5 5 5 5 5 4 5 4 4 9 8 10 11 11 11 11 10 10 9 9 9 10
8 7 5 4 3 2 3 7 8 8 8 8 8 8 8 8 7 8 7 7 11 19 10 5 8 7 6 7 8 8 8 7 6 7 6 7 8 11 12 12 13 11 12 12 13 15 14 14 17 18 15 15 14 13 11 9 11 12 11 10 11 13 12 7 4 4 4 4 4 4 3 4 9 9 10 10 10 9 10 9 9 8 9 9 10
7 6 6 4 4 3 3 2 5 9 9 9 8 8 7 8 8 7 7 8 10 19 15 2 6 8 7 9 9 8 8 8 7 6 6 7 9 11 14 13 12 12 11 11 13 11 14 11 10 12 13 13 12 11 9 8 9 11 11 11 11 12 12 9 4 4 4 5 4 3 3 4 8 8 9 9 9 9 8 8 8 8 8 9 8
7 6 5 4 4 4 3 4 4 3 4 6 8 8 7 7 8 7 7 7 10 13 19 7 5 8 8 9 9 9 9 9 8 8 9 7 9 10 12 15 11 11 11 11 12 9 12 11 10 12 13 13 11 11 9 9 9 10 10 10 11 12 11 9 4 4 5 5 4 3 2 6 8 8 8 8 8 8 7 7 7 7 7 8 7
6 6 5 5 4 4 4 4 4 5 5 4 3 5 7 7 7 6 6 5 9 11 19 12 4 8 9 9 10 9 8 9 10 10 10 9 8 9 11 13 13 10 10 12 13 10 12 13 13 14 13 11 11 10 9 8 8 9 9 9 11 11 11 6 4 4 4 3 3 3 3 6 6 7 7 7 6 7 7 6 6 6 7 7 6
5 5 6 4 4 4 4 4 4 5 4 5 5 4 5 6 5 6 6 4 10 14 22 13 7 8 8 11 13 9 8 6 11 9 10 9 9 8 11 11 12 12 14 14 14 11 12 13 14 14 13 12 11 9 8 7 7 8 8 9 9 11 5 3 5 4 3 3 3 2 3 5 6 5 5 6 5 6 5 5 5 6 7 5 5
4 5 5 4 4 4 4 4 4 5 5 5 5 4 3 6 4 6 5 7 11 15 17 16 11 6 6 9 12 7 5 5 5 5 8 7 9 9 10 11 9 10 12 15 14 11 8 13 14 14 12 12 10 8 7 6 8 12 8 8 10 5 4 4 4 4 3 3 2 2 3 5 4 5 5 4 4 4 4 4 5 6 5 4 4
6 5 5 4 4 3 4 4 4 4 4 4 4 3 3 4 4 4 4 6 8 11 11 9 9 6 12 9 6 6 5 4 5 5 4 7 9 11 9 12 8 10 12 12 13 11 11 14 13 11 10 10 9 5 5 6 8 9 7 8 5 3 3 3 4 4 3 2 2 1 2 3 3 4 4 4 3 3 3 4 5 4 3 3 3
6 5 4 4 3 3 3 4 4 3 5 4 4 4 4 4 4 5 5 7 7 8 7 8 6 9 7 4 6 6 6 4 4 4 3 10 9 11 12 11 10 10 10 11 12 10 11 12 14 10 6 10 6 5 5 4 4 7 7 4 3 3 3 3 3 3 2 1 1 0 2 2 2 3 3 2 3 2 3 3 3 2 1 1 2
5 5 5 4 4 4 3 3 3 4 4 4 4 4 4 4 4 5 5 5 5 5 6 6 6 6 6 7 4 4 4 3 9 10 8 5 7 10 13 11 10 10 11 7 9 10 10 11 10 9 7 4 4 4 4 4 4 3 3 3 2 2 2 2 2 2 1 1 0 1 2 2 2 2 2 2 1 2 2 2 1 1 1 1 1
3 3 4 4 5 5 4 3 3 4 4 4 4 4 4 4 4 4 5 4 5 5 5 6 6 6 6 5 6 6 5 4 4 4 6 5 6 5 6 4 4 6 8 6 5 5 5 5 4 5 4 4 5 4 4 4 3 3 3 2 2 2 2 2 1 2 1 1 1 2 2 3 2 2 2 2 1 1 1 1 1 2 2 1 2
4 4 3 5 5 5 4 3 3 4 4 4 4 4 4 4 4 4 5 4 4 5 5 5 5 5 5 5 5 6 5 4 5 5 5 5 5 5 6 5 5 5 4 5 4 4 5 4 4 4 3 3 3 3 3 3 3 3 2 2 1 1 1 1 1 2 1 0 1 3 3 3 3 2 2 2 2 1 2 1 3 3 3 3 3
5 4 3 3 4 5 4 3 3 4 4 4 3 4 4 4 4 4 5 4 4 5 5 5 5 5 5 5 6 6 5 5 5 5 6 6 6 6 6 5 5 4 4 4 4 3 4 4 4 3 3 4 3 2 3 3 2 3 3 2 1 1 1 1 1 2 2 1 2 5 4 4 3 3 3 3 3 2 3 2 3 4 4 4 4
5 5 4 4 4 5 4 4 3 4 3 3 4 3 3 3 3 4 4 4 4 4 4 4 5 5 5 5 5 5 5 5 5 6 5 5 5 5 5 5 5 4 3 3 4 3 4 3 3 3 4 3 3 2 2 1 1 2 3 3 2 1 1 1 1 2 2 2 2 5 5 4 4 4 4 4 4 4 4 4 4 5 5 6 6
6 6 5 5 5 5 5 5 4 4 3 3 4 3 2 2 3 3 3 4 3 3 4 4 4 4 4 5 5 5 5 5 5 4 5 5 4 4 4 4 3 3 3 3 3 3 3 3 3 3 3 3 3 3 3 2 0 2 2 3 3 2 2 1 2 2 2 2 3 4 6 5 5 5 5 5 5 5 5 5 5 6 6 6 7
6 6 6 5 5 6 6 6 5 4 4 4 3 3 2 3 3 3 2 3 3 4 5 4 3 4 4 5 5 5 4 5 5 3 4 4 3 3 4 4 3 3 3 4 3 3 3 3 3 3 3 3 3 3 3 3 2 1 2 3 3 3 2 2 2 3 3 3 3 4 7 6 6 6 6 6 6 6 6 6 6 6 6 7 8
5 6 6 6 6 7 6 5 5 5 4 4 4 3 3 3 2 2 2 3 3 4 4 4 3 3 3 4 5 5 4 4 4 4 3 3 3 3 4 3 3 3 3 3 3 3 2 2 2 3 3 3 3 2 2 3 2 2 2 3 3 3 3 2 2 2 3 4 4 4 5 8 7 7 7 7 7 7 7 7 8 7 7 8 8
7 7 6 6 6 7 7 6 5 5 5 5 4 4 4 3 3 2 2 2 4 4 4 4 4 3 3 4 4 4 4 3 4 3 4 3 3 3 3 3 2 2 3 2 2 2 2 2 3 3 3 3 4 3 2 2 3 3 2 3 3 3 3 3 3 3 3 3 4 4 4 4 7 8 8 8 8 8 8 8 8 8 9 9 10
5 7 6 7 8 8 7 6 6 6 6 6 4 4 3 3 3 3 2 3 3 4 3 4 3 3 3 4 4 4 4 4 3 4 3 3 3 3 2 2 2 3 2 2 2 2 2 3 3 2 3 2 2 3 1 1 2 3 3 3 3 3 3 3 3 3 4 3 3 3 3 3 4 6 7 8 9 8 8 9 9 9 10 10 10
6 5 7 8 6 6 5 5 7 7 7 6 4 4 4 3 3 2 2 3 2 3 3 3 4 3 3 4 4 4 4 4 4 4 3 3 3 3 3 2 2 3 2 1 1 1 2 2 4 3 2 2 3 3 0 1 1 1 2 2 2 3 2 3 3 3 3 3 3 3 3 3 3 3 4 7 8 9 9 9 10 10 10 10 11
6 6 8 8 8 7 6 6 7 7 7 6 6 5 4 3 3 3 2 2 2 2 3 3 3 3 3 3 4 4 4 4 4 4 3 3 3 2 1 1 2 1 0 1 1 1 1 2 2 2 2 1 2 1 1 1 1 2 3 2 3 2 2 3 3 3 4 3 3 3 3 3 3 3 4 3 5 8 9 9 10 10 11 11 11
9 8 7 7 8 8 7 7 8 8 7 6 6 5 5 4 3 3 2 3 2 2 2 2 3 3 3 3 4 3 4 4 4 4 3 2 3 2 1 1 1 0 1 0 1 2 2 2 2 2 2 0 1 2 2 2 1 3 2 3 3 3 3 3 4 4 4 3 4 3 3 3 3 3 5 4 3 4 8 9 10 10 10 11 11
9 9 9 8 8 8 8 8 10 8 7 7 6 5 5 5 4 3 3 3 2 2 2 3 3 3 3 3 3 3 4 4 4 3 3 3 2 2 1 1 1 1 0 1 2 1 2 2 1 1 1 2 2 2 2 2 1 1 2 3 3 3 4 4 4 3 3 4 4 3 3 3 3 5 4 4 4 3 5 8 8 9 10 11 11
9 10 9 10 9 8 8 8 8 8 6 6 6 5 5 4 3 3 3 3 2 2 2 3 3 3 3 3 3 3 4 4 4 4 3 2 2 2 1 1 1 1 1 2 2 2 1 0 3 1 1 1 2 2 3 2 1 1 2 3 4 3 4 3 3 4 4 5 4 4 4 3 3 3 3 3 4 3 3 5 7 8 9 9 9
8 9 9 8 7 7 6 7 8 7 6 6 5 4 4 3 2 3 3 3 2 2 3 3 2 2 3 3 3 3 4 4 4 4 4 3 2 2 1 0 0 0 1 2 2 2 1 1 2 3 1 2 2 2 2 2 1 1 2 2 3 5 4 4 3 4 4 5 4 4 3 4 3 3 4 4 3 3 3 3 2 3 4 7 9
7 7 8 7 7 7 6 6 7 7 6 5 5 4 4 4 4 2 2 3 3 3 2 3 2 2 2 3 3 3 3 4 4 4 4 3 2 2 1 0 0 0 1 2 3 2 3 3 3 3 4 3 2 1 1 0 1 3 2 2 2 3 4 3 4 5 4 5 5 3 4 3 3 3 4 4 3 3 3 3 3 3 3 5 8
7 8 8 8 8 8 7 7 7 7 7 6 5 6 5 4 3 4 4 3 4 3 3 3 3 2 3 3 3 3 3 4 4 4 4 3 3 2 2 1 1 0 1 2 2 2 1 1 2 1 3 4 2 2 2 2 3 2 3 4 3 2 3 3 4 4 5 5 4 4 3 3 4 4 3 3 3 3 3 3 3 3 3 3 5
8 9 10 9 8 8 8 7 6 7 7 7 7 6 4 5 5 5 3 4 4 5 4 4 4 3 4 4 3 3 3 3 3 4 3 4 3 2 1 0 0 0 1 1 1 1 2 2 2 3 2 2 3 2 2 1 4 2 1 4 5 5 1 2 3 4 4 3 4 4 3 4 5 4 2 2 3 3 3 3 3 3 3 3 4
10 11 10 9 8 8 8 7 7 7 7 7 6 6 4 4 5 4 5 3 2 3 3 2 3 3 4 4 3 3 3 3 3 4 4 3 3 3 2 2 2 2 1 1 1 2 2 3 3 2 3 2 1 1 4 3 2 0 1 1 3 5 5 4 2 3 2 2 2 4 3 4 5 3 2 3 3 3 3 3 3 3 4 4 4
7 7 7 9 8 8 7 7 7 7 7 7 7 6 6 6 4 5 5 4 4 3 2 3 3 3 3 4 3 4 4 4 4 4 3 3 3 3 2 2 3 3 3 2 1 0 2 2 2 2 2 3 4 3 3 2 2 2 3 2 1 1 3 4 5 5 1 2 2 3 3 4 3 2 2 3 3 3 3 2 4 3 4 4 4
9 9 10 9 8 10 9 9 8 8 7 7 7 6 6 4 2 2 3 4 5 4 3 2 3 2 2 3 4 4 4 4 4 4 4 4 4 3 3 3 3 3 3 2 2 1 1 1 1 1 2 1 3 2 1 1 1 1 5 1 2 3 1 4 3 4 3 3 1 2 3 4 3 2 3 3 2 3 3 3 3 3 4 4 4
10 10 10 11 10 9 9 8 7 7 8 8 7 7 7 7 5 6 5 4 4 5 6 6 5 5 5 3 3 4 4 4 4 4 4 4 4 4 4 3 3 3 3 3 2 2 2 1 1 2 2 1 2 3 2 1 3 2 1 0 3 0 2 2 1 4 5 1 3 2 2 3 2 2 3 3 3 3 2 4 3 4 4 4 4
11 9 9 9 9 9 9 9 8 7 8 8 8 7 7 7 8 8 7 7 7 6 6 5 6 5 4 5 4 4 4 5 4 4 4 4 4 4 4 4 3 3 3 3 2 1 0 1 2 2 2 2 1 2 3 2 1 1 2 2 1 1 1 1 2 1 5 6 4 3 3 2 2 3 3 3 3 3 3 3 4 4 4 3 3
10 9 9 8 9 10 9 9 7 7 7 8 8 8 8 7 7 6 6 7 7 7 6 6 5 4 5 5 4 4 4 4 4 5 4 4 4 4 4 4 3 2 2 3 2 2 1 0 1 1 2 1 3 3 2 2 2 2 2 3 2 2 2 1 3 1 1 3 6 4 2 3 2 2 3 3 3 4 5 4 4 5 4 4 3
10 11 11 11 10 9 10 8 8 8 7 9 9 8 8 8 8 7 6 5 6 6 5 4 5 5 5 4 4 4 4 4 4 5 4 4 4 4 4 4 3 3 2 2 2 2 3 2 2 2 2 2 1 2 3 2 2 2 2 2 1 3 3 2 1 1 1 2 3 4 6 5 3 2 2 2 3 3 4 5 4 4 4 4 3
11 11 10 9 8 8 9 9 9 8 8 9 9 9 8 8 8 8 8 6 4 3 4 6 5 5 6 5 5 5 4 4 4 4 4 4 4 4 4 5 5 3 3 3 3 3 3 3 3 3 3 3 1 2 3 2 1 1 1 1 3 2 3 1 2 3 2 3 1 4 3 4 6 5 4 4 3 4 4 4 4 4 3 4 3
8 9 9 9 9 10 10 11 10 8 8 9 9 9 8 8 8 9 9 9 7 6 5 5 5 5 6 5 5 6 5 5 4 4 4 4 4 4 4 5 4 4 3 4 4 4 3 3 3 3 4 4 2 2 2 1 2 2 2 1 2 2 1 1 3 2 1 1 2 3 3 1 2 5 4 5 5 4 4 3 3 3 3 3 3
Wind_Direction
217 125 128 125 117 115 127 133 151 198 100 100 101 101 97 93 90 87 85 85 86 86 86 84 84 86 89 92 92 99 102 102 102 103 105 102 102 107 112 111 110 108 109 108 107 107 107 108 110 111 109 103 97 96 102 104 104 103 102 101 97 93 94 95 98 97 95 95 94 91 89 94 97 90 90 89 86 85 80 77 77 80 79 83 84
154 143 125 135 128 130 128 116 119 96 103 101 100 96 97 95 93 88 86 85 86 88 89 90 90 93 94 93 97 102 101 100 97 97 95 88 89 97 114 109 110 106 109 109 108 109 109 107 108 107 106 106 105 105 100 104 104 104 103 99 94 91 91 95 94 93 90 88 88 87 80 83 90 92 91 89 89 84 84 82 81 72 76 80 77
118 124 128 141 141 142 138 120 101 91 112 105 99 100 101 101 97 94 90 88 86 85 88 91 92 94 97 100 104 102 102 103 106 92 103 124 128 129 119 112 112 100 103 107 110 112 109 105 103 104 106 105 106 104 104 109 107 105 104 101 101 97 89 90 94 92 89 89 89 81 77 81 90 93 94 90 89 88 85 84 84 85 84 83 81
121 114 119 144 147 134 127 126 151 163 114 112 107 106 104 106 104 102 97 91 87 83 82 85 90 94 99 105 105 104 103 105 103 112 118 115 119 117 109 111 110 106 111 109 107 110 110 113 113 111 110 109 108 109 114 109 107 106 101 96 95 93 88 96 97 94 92 93 89 74 48 27 62 96 98 94 90 87 83 77 79 84 84 78 80
114 125 133 139 124 121 129 174 164 124 121 114 110 107 107 103 104 102 99 91 88 88 85 86 89 93 98 105 111 110 109 110 107 110 108 98 101 113 110 99 96 112 116 120 117 111 110 112 117 115 111 111 115 121 115 110 109 108 105 107 109 108 103 101 97 94 99 95 81 62 44 57 24 79 96 97 88 82 82 86 80 80 82 84 78
123 125 129 117 115 166 187 155 128 126 122 118 116 112 111 109 106 101 96 92 86 84 88 87 92 104 97 89 93 104 112 112 114 121 109 115 126 99 99 90 101 105 114 119 117 114 114 116 117 116 114 113 122 121 112 110 109 106 105 112 113 108 108 103 100 96 92 79 68 53 42 42 48 64 75 86 90 86 87 85 81 67 78 76 76
125 129 128 132 154 172 143 128 126 125 123 121 120 122 119 114 106 98 95 93 89 89 94 91 77 72 79 82 73 82 103 108 108 100 101 115 104 93 104 107 106 111 122 125 118 121 121 123 120 120 116 117 113 111 113 110 108 109 115 111 107 106 101 99 95 90 82 68 49 46 45 50 58 56 76 90 89 89 87 89 87 87 77 77 76
118 121 127 133 127 128 131 129 127 120 120 118 119 115 110 102 98 95 96 94 102 103 77 61 69 86 77 83 87 87 92 99 106 109 116 128 113 108 107 108 110 110 121 121 119 119 124 126 125 121 116 116 113 110 107 107 107 108 107 104 102 98 98 95 93 83 73 60 52 53 59 74 66 67 112 98 91 89 85 79 77 74 74 76 74
121 118 122 121 133 127 134 126 122 117 114 110 102 106 108 103 102 103 105 113 110 80 72 108 94 88 92 103 103 98 94 94 110 119 129 129 117 113 110 110 107 119 127 124 122 126 118 117 117 111 111 118 116 111 108 109 110 111 107 103 100 98 96 91 81 70 60 53 54 56 51 53 69 65 82 84 86 86 81 78 77 77 76 75 73
116 115 122 123 137 136 137 129 120 114 111 110 109 117 115 119 116 116 118 111 90 89 106 113 120 104 100 108 111 107 103 106 101 110 128 125 119 113 116 121 122 138 133 128 121 129 120 119 115 119 115 112 116 116 117 115 113 110 106 101 98 96 94 83 71 62 54 52 52 57 65 67 67 54 64 63 70 77 88 85 83 80 78 75 74
116 119 116 119 142 139 140 126 112 111 116 125 129 121 117 111 106 104 105 104 96 95 102 127 108 100 112 108 106 109 109 108 111 119 127 135 129 126 127 109 124 142 140 124 124 130 114 117 118 116 105 99 114 119 118 115 111 108 106 101 98 94 89 77 63 51 50 53 55 48 66 60 72 75 72 85 84 82 82 82 80 77 75 74 73
116 112 111 126 142 140 135 116 110 119 127 120 115 116 115 112 110 103 102 94 97 94 92 121 105 101 106 101 68 104 109 115 120 121 125 120 118 116 114 118 124 134 129 111 103 116 113 104 101 110 114 126 111 113 116 114 111 109 103 100 97 96 90 78 66 60 54 53 56 55 48 65 79 96 97 93 94 86 82 80 79 78 77 76 74
115 107 108 106 118 142 125 118 126 128 118 115 109 106 101 96 92 95 87 87 93 97 108 132 98 113 119 98 95 94 105 120 125 118 116 115 107 108 112 114 118 124 123 119 129 120 107 97 107 118 116 108 103 106 116 116 113 109 106 103 102 98 92 79 64 65 57 49 47 42 53 80 101 86 86 78 86 89 81 81 80 79 77 76 76
117 110 107 111 138 136 127 122 122 120 116 114 109 102 96 93 92 82 73 59 93 113 121 122 97 102 104 107 104 109 114 118 123 126 122 114 116 115 108 98 96 101 116 124 127 125 127 124 123 128 143 134 135 119 109 112 116 114 111 110 109 104 93 80 71 61 59 52 52 53 49 58 95 120 108 108 94 82 84 81 80 77 74 72 69
121 115 108 94 102 114 128 128 128 123 112 111 107 101 98 94 90 84 81 81 85 84 100 119 110 101 97 107 107 109 113 116 119 120 112 109 109 107 93 101 104 117 119 118 115 126 129 137 138 147 159 149 137 129 122 123 120 118 119 116 109 102 92 76 66 59 55 57 47 47 44 66 92 88 88 83 82 81 80 81 79 79 76 72 69
117 114 104 86 81 90 100 135 131 122 119 112 105 103 102 96 93 94 92 88 88 90 65 54 80 93 103 102 99 103 109 115 111 102 106 111 114 98 109 114 121 128 123 114 114 120 127 133 148 156 138 136 135 123 113 117 119 122 121 117 112 106 97 84 71 59 61 53 45 42 38 81 86 82 79 80 80 84 82 82 80 78 76 73 72
117 112 102 89 84 74 83 101 125 121 113 108 111 110 107 105 97 93 86 89 94 106 118 100 97 93 98 97 93 93 105 103 104 108 112 118 112 119 123 119 120 121 114 110 114 124 123 126 120 126 119 115 108 103 97 102 124 122 120 119 115 106 98 87 75 70 67 63 54 40 54 72 86 86 85 85 85 84 84 81 80 77 76 71 70
112 107 100 95 86 77 77 72 78 56 73 101 110 109 105 99 95 88 85 88 98 98 108 108 85 90 87 91 96 104 103 109 111 113 113 106 111 113 112 119 126 130 128 125 116 118 101 94 94 114 113 107 106 106 119 132 120 111 115 116 113 105 99 88 72 67 65 63 49 45 41 87 87 89 89 89 88 85 84 82 81 80 76 73 67
108 104 105 98 88 79 77 75 73 78 78 77 49 99 102 101 99 100 100 105 101 94 93 90 96 91 86 91 94 93 99 103 101 105 105 113 112 114 116 121 131 126 126 121 126 112 100 94 86 90 99 102 105 111 113 104 100 102 107 114 111 104 94 78 68 66 64 58 45 43 62 86 90 92 91 93 92 91 89 89 83 78 70 66 62
103 104 114 94 92 85 82 77 81 82 86 82 82 51 91 98 96 102 99 126 100 80 83 97 74 58 72 91 95 91 86 75 96 99 110 117 117 117 117 128 130 135 133 118 97 95 90 92 90 90 97 103 102 97 94 93 96 93 89 92 100 92 80 73 72 66 61 76 66 25 85 96 99 98 99 97 98 97 95 88 82 71 66 62 57
113 118 114 102 96 100 94 84 84 86 83 87 84 78 86 89 58 83 68 73 82 91 97 100 85 62 60 78 86 77 51 45 36 73 107 107 107 106 115 114 112 114 104 108 104 104 103 84 81 82 83 81 82 81 80 72 72 77 76 100 98 87 83 88 86 88 82 75 58 12 29 103 109 112 110 109 104 100 97 89 79 70 60 48 50
136 134 134 117 104 102 107 99 86 85 84 83 97 94 74 74 54 61 84 87 78 84 91 102 108 61 36 15 46 68 62 39 31 60 58 103 100 112 110 104 102 92 93 94 108 110 104 94 81 71 75 79 61 43 42 66 82 111 124 107 91 85 88 93 100 105 82 70 72 18 115 124 126 121 117 118 117 109 100 84 68 67 63 48 41
146 147 138 121 114 107 105 99 98 82 76 79 92 93 80 70 62 71 71 72 80 78 82 96 117 119 119 55 33 47 57 47 68 88 87 104 117 120 108 109 106 100 105 98 97 99 94 97 102 117 93 57 48 39 40 25 34 72 88 86 89 89 91 100 104 102 95 64 42 205 155 153 157 142 139 141 134 118 101 86 78 72 48 42 23
144 153 148 119 125 122 106 109 110 86 78 83 86 85 85 79 75 74 72 75 76 77 75 84 87 89 103 113 117 75 52 44 90 96 84 53 85 98 98 92 96 97 75 61 71 85 73 80 87 68 54 53 47 45 43 45 44 47 67 84 85 91 99 103 114 114 104 34 77 281 182 192 187 185 162 164 153 135 108 93 132 187 251 300 340
127 110 132 140 141 139 130 109 98 90 83 82 93 92 86 79 78 76 76 76 78 75 79 79 78 83 90 93 102 110 99 79 84 83 79 83 76 74 80 79 62 50 60 60 46 40 51 58 48 55 45 47 49 40 43 45 50 53 59 60 85 88 102 109 100 122 110 69 269 232 217 201 204 210 203 179 181 162 159 178 237 259 270 286 308
131 132 145 148 154 148 131 129 104 90 85 87 103 104 89 89 89 93 87 71 77 80 82 78 78 81 93 95 81 73 94 95 66 61 62 69 66 62 62 65 53 55 54 67 54 55 53 56 56 57 43 55 64 56 49 70 90 88 74 68 80 91 118 122 127 154 168 284 282 246 217 219 210 230 232 221 221 213 227 231 279 285 276 288 300
152 144 135 137 149 153 139 133 124 96 86 93 73 78 82 95 93 111 103 90 80 85 84 83 82 84 82 90 91 85 77 76 70 67 68 69 69 63 63 58 61 58 48 70 60 56 55 54 53 47 39 39 35 51 51 66 90 114 114 106 107 131 153 155 155 190 213 230 258 241 227 220 230 239 254 254 252 244 238 249 274 289 295 289 298
139 147 149 149 153 162 152 151 128 113 100 99 88 91 82 103 138 119 104 124 100 88 86 93 85 80 82 86 94 88 92 82 79 78 79 75 69 68 69 67 67 63 57 53 66 50 48 46 43 30 23 20 7 350 11 66 102 137 145 155 149 156 174 192 190 219 232 242 247 254 221 236 242 244 255 260 255 254 261 272 276 288 297 300 299
158 156 152 154 166 159 156 160 154 129 119 115 109 105 99 93 93 108 130 134 98 105 103 92 88 84 82 85 92 93 88 89 84 82 80 73 70 69 67 68 61 53 58 54 53 47 41 34 30 9 13 350 343 325 326 321 152 175 184 179 178 175 186 193 218 231 236 242 254 271 238 242 243 256 259 273 273 268 264 266 272 282 292 295 295
176 155 156 161 165 156 164 167 163 144 139 136 125 129 132 129 106 120 194 123 117 117 109 97 92 94 91 88 87 97 98 99 94 85 83 79 75 67 61 56 59 39 45 49 36 43 31 12 5 2 345 337 312 308 310 302 278 222 193 204 196 195 182 197 216 229 233 236 241 262 264 243 252 254 262 265 275 283 285 281 283 289 292 290 286
162 166 163 161 165 160 167 164 161 162 145 158 151 143 150 144 138 121 100 114 131 125 108 107 99 96 103 95 94 97 99 94 94 93 88 87 71 69 63 53 46 34 43 50 37 35 15 18 332 326 321 311 292 296 294 276 267 241 221 212 209 191 190 195 213 218 229 234 236 244 269 281 257 253 261 266 276 281 288 294 296 299 293 291 292
174 175 167 156 158 164 163 163 164 167 168 166 173 159 166 162 153 122 109 117 130 117 123 123 120 110 108 99 105 95 104 97 102 92 101 90 68 76 66 55 44 33 44 49 37 30 1 327 313 293 282 277 291 288 247 234 241 235 217 229 211 203 195 193 213 220 228 228 234 235 247 265 289 273 259 265 270 273 278 286 292 292 292 295 300
178 169 159 159 162 161 161 165 165 168 168 173 170 170 160 167 152 161 144 142 124 122 124 132 122 124 123 119 112 113 107 112 109 108 98 95 93 82 71 61 39 32 40 31 22 357 349 324 298 287 286 273 294 302 208 182 213 225 213 222 213 219 201 193 211 223 226 227 224 230 236 253 264 290 290 277 271 276 281 282 284 286 291 295 296
164 162 156 168 161 159 158 162 169 175 177 171 160 166 172 171 166 152 170 141 127 124 133 123 137 138 131 127 127 125 112 112 115 98 96 95 88 77 82 57 45 37 35 43 347 346 308 308 296 308 312 348 336 325 108 160 190 172 193 219 206 225 201 216 215 226 229 233 227 226 232 234 251 262 281 287 283 279 279 284 287 290 293 294 295
158 162 173 168 161 160 160 165 170 174 175 174 172 172 175 174 160 166 157 131 139 119 116 124 134 142 135 134 135 131 119 121 123 121 109 111 105 92 64 48 47 39 49 211 198 251 260 273 293 314 321 317 333 299 21 110 245 204 209 191 220 211 211 224 223 229 228 233 225 227 226 235 239 245 260 264 273 275 281 283 284 288 291 293 295
170 172 166 162 166 164 163 159 167 170 176 174 165 168 176 176 169 178 147 152 148 127 122 126 134 144 143 141 143 137 117 121 121 121 115 113 121 129 127 138 87 81 192 202 202 299 307 303 286 232 318 241 256 27 11 20 304 266 240 212 208 206 213 223 227 231 231 222 229 229 226 234 236 248 256 257 256 265 269 276 281 284 286 289 291
171 171 167 164 167 167 167 156 168 172 173 174 160 166 167 180 176 185 163 160 154 156 133 121 137 157 155 150 145 148 118 126 119 114 125 136 135 145 180 175 173 177 191 35 345 326 321 309 280 221 189 37 29 357 349 330 356 247 222 222 232 221 225 222 226 233 229 225 228 234 232 228 234 245 246 251 254 256 265 271 279 283 285 286 288
172 172 170 167 170 167 168 162 163 167 165 167 167 164 171 164 172 174 172 169 163 158 144 141 161 168 162 156 153 154 132 135 128 125 121 146 149 161 163 168 166 190 39 9 327 314 266 210 344 338 35 170 326 325 314 345 356 157 179 203 223 216 237 232 224 228 218 234 232 237 233 232 232 233 242 247 252 250 254 264 275 285 288 291 292
173 171 169 166 160 165 163 161 157 163 158 154 152 148 138 118 117 144 157 159 143 156 147 156 169 163 173 152 153 159 135 139 134 139 134 146 136 159 190 130 205 191 37 7 320 336 10 19 15 318 275 237 228 246 265 283 350 164 125 187 194 220 225 219 213 218 218 229 238 242 227 234 233 231 237 239 244 247 255 263 270 280 288 292 295
169 164 165 163 164 163 161 152 156 158 143 136 139 140 137 151 154 113 134 180 172 168 171 179 165 168 170 157 159 154 141 138 139 138 143 144 151 172 158 157 179 93 39 348 324 354 353 359 339 2 358 356 51 34 352 179 69 54 22 326 277 277 230 209 210 215 215 222 225 231 243 234 225 240 238 240 240 249 253 260 267 277 288 292 294
166 163 166 169 170 171 159 166 160 153 150 147 154 157 156 146 127 177 188 185 177 177 179 183 182 177 161 158 170 160 143 143 146 149 157 170 160 170 158 80 58 127 178 245 283 293 319 230 305 27 25 12 10 10 20 59 55 358 347 344 333 247 273 213 217 213 216 221 212 222 227 241 240 236 236 236 242 252 252 256 261 266 275 283 291
180 169 173 176 176 170 172 167 150 160 162 162 163 168 174 176 158 181 164 163 173 177 185 192 183 168 154 164 175 165 157 160 158 161 164 169 160 171 141 123 93 97 214 241 266 31 37 29 16 28 32 20 1 1 326 89 22 103 358 328 332 326 314 267 252 247 234 227 218 223 223 237 248 243 231 228 242 241 244 247 252 264 267 272 275
178 177 175 169 172 175 181 163 161 163 167 161 156 172 177 174 167 167 166 150 202 186 180 154 164 156 158 165 169 168 169 176 170 171 170 184 184 164 182 170 170 187 206 288 15 55 49 47 42 64 348 21 10 329 352 38 131 137 123 66 358 359 333 350 313 281 283 255 233 232 225 235 248 244 219 230 235 242 246 246 248 250 261 264 269
175 176 175 174 173 179 177 169 168 164 164 168 168 170 171 182 185 168 171 154 164 152 118 108 128 139 162 163 169 172 181 183 182 180 185 180 180 190 178 180 192 187 191 212 242 112 63 67 54 68 104 15 3 336 358 348 129 162 350 26 280 67 358 325 330 306 271 242 215 237 229 241 251 236 198 243 244 242 248 244 251 248 253 261 270
180 183 181 178 180 181 178 173 171 169 165 169 167 159 151 155 150 66 89 70 59 100 115 137 175 192 169 177 190 176 182 185 185 187 186 183 183 186 183 191 191 187 175 179 177 154 127 117 124 84 84 125 3 349 321 339 342 140 136 91 1 18 205 261 343 284 353 25 333 264 240 237 240 221 226 254 272 261 271 267 257 254 253 261 264
184 188 186 181 178 179 175 173 172 169 163 169 161 155 156 155 144 144 152 160 145 157 182 186 185 189 206 192 170 183 179 188 188 191 195 178 185 186 182 175 193 186 182 171 151 150 136 113 199 176 140 218 131 60 13 347 1 17 118 163 162 172 256 291 37 329 321 278 302 310 279 268 222 218 221 243 251 259 236 264 255 262 256 256 264
191 183 182 182 180 175 177 173 174 173 165 163 159 157 153 160 166 170 171 177 173 199 193 187 184 196 185 182 190 181 183 184 191 192 190 186 177 176 176 179 176 180 174 148 167 170 180 186 171 165 175 140 135 85 47 313 326 42 9 43 341 336 130 39 325 217 353 326 345 353 337 313 262 240 239 242 246 261 265 255 268 268 266 255 259
182 174 182 180 176 176 176 178 175 172 172 161 163 163 160 167 166 169 171 175 185 192 189 190 188 173 176 192 173 192 188 192 183 188 186 180 167 170 171 167 167 177 182 178 182 200 141 265 154 143 137 141 161 123 120 11 108 305 20 23 11 50 53 134 159 85 189 331 329 329 255 314 326 244 246 250 241 248 263 258 252 255 257 261 248
174 178 183 184 178 175 175 174 175 172 173 168 166 170 165 166 165 163 171 192 188 189 181 176 173 178 182 179 183 188 187 197 192 182 186 173 175 171 172 174 175 181 186 175 188 177 187 164 150 147 159 157 140 126 116 132 106 72 3 359 29 46 37 43 54 102 107 33 298 343 327 327 331 324 312 259 253 242 237 243 241 255 263 272 261
183 182 182 174 171 169 172 173 178 176 174 175 172 171 169 162 158 167 169 180 185 168 167 172 179 175 186 186 189 187 191 191 197 192 184 186 185 171 173 181 191 186 184 185 176 187 190 180 189 181 165 135 128 150 132 163 155 165 98 152 32 28 32 351 25 41 57 61 46 305 314 341 343 303 315 331 307 271 259 255 263 265 270 275 289
177 173 174 177 172 173 174 177 182 177 175 178 174 175 169 167 165 167 169 171 174 166 167 182 168 175 188 189 186 196 188 192 184 191 192 186 191 186 179 191 186 183 178 174 193 205 196 170 163 159 156 148 161 162 116 91 122 125 129 110 105 85 109 99 299 329 343 278 357 307 301 217 261 320 297 322 310 296 271 261 262 280 286 292 301